Location: São Paulo
(23.5507°S, 46.6334°W)
Time: 18:08:20
(UTC-03:00)

Tiros 1 - Pass Details

Date: 18 February 2026
Orbit: 618 x 649 km, 48.4° (Epoch: 8 March)

Event Time Altitude Azimuth Distance (km) Brightness Sun altitude
Rises 17:19:31 0° 358° (N) 2,885 10.5 18.4°
Reaches altitude 10° 17:22:54 10° 24° (NNE) 1,995 9.4 17.6°
Maximum altitude 17:25:09 14° 54° (NE) 1,781 9.0 17.1°
Drops below altitude 10° 17:27:26 10° 84° (E) 2,016 9.1 16.6°
Sets 17:30:52 0° 109° (ESE) 2,940 10.0 15.8°
